Time,TemperatureF,DewpointF,PressureIn,WindDirection,WindDirectionDegrees,WindSpeedMPH,WindSpeedGustMPH,Humidity,HourlyPrecipIn,Conditions,Clouds,dailyrainin,SolarRadiationWatts/m^2,SoftwareType,DateUTC
2013-02-24 00:00:00,33.1,32.1,29.96,NNE,26,2.0,2.0,96,0.00,,,0.10,0,Wunderground v.1.15,2013-02-24 05:00:00,
2013-02-24 00:04:00,33.1,32.1,29.96,NNE,26,3.0,3.0,96,0.00,,,0.10,0,Wunderground v.1.15,2013-02-24 05:04:00,
2013-02-24 00:06:00,33.1,32.1,29.96,NNE,26,3.0,4.0,96,0.00,,,0.10,0,Wunderground v.1.15,2013-02-24 05:06:00,
2013-02-24 00:12:00,33.1,32.1,29.96,NNE,26,2.0,4.0,96,0.00,,,0.10,0,Wunderground v.1.15,2013-02-24 05:12:00,
2013-02-24 00:18:00,33.1,32.1,29.95,NNE,26,1.0,4.0,96,0.00,,,0.11,0,Wunderground v.1.15,2013-02-24 05:18:00,
2013-02-24 00:24:00,33.2,32.2,29.95,NNE,26,1.0,4.0,96,0.00,,,0.11,0,Wunderground v.1.15,2013-02-24 05:24:00,
2013-02-24 00:30:00,33.4,32.4,29.95,NNE,26,2.0,2.0,96,0.00,,,0.11,0,Wunderground v.1.15,2013-02-24 05:30:00,
2013-02-24 00:36:00,33.4,32.4,29.93,NNE,26,2.0,4.0,96,0.00,,,0.11,0,Wunderground v.1.15,2013-02-24 05:36:00,
2013-02-24 00:42:00,33.7,32.7,29.93,NNE,26,3.0,5.0,96,0.00,,,0.12,0,Wunderground v.1.15,2013-02-24 05:42:00,
2013-02-24 00:48:00,33.8,32.8,29.93,NNE,26,3.0,5.0,96,0.00,,,0.12,0,Wunderground v.1.15,2013-02-24 05:48:00,
2013-02-24 00:54:00,33.8,33.0,29.93,NNE,26,2.0,4.0,97,0.00,,,0.12,0,Wunderground v.1.15,2013-02-24 05:54:00,
2013-02-24 01:00:00,34.0,33.2,29.93,NNE,26,3.0,4.0,97,0.00,,,0.12,0,Wunderground v.1.15,2013-02-24 06:00:00,
2013-02-24 01:06:00,34.1,33.3,29.92,NNE,26,3.0,6.0,97,0.00,,,0.12,0,Wunderground v.1.15,2013-02-24 06:06:00,
2013-02-24 01:12:00,34.1,33.3,29.92,NNE,26,3.0,5.0,97,0.00,,,0.12,0,Wunderground v.1.15,2013-02-24 06:12:00,
2013-02-24 01:18:00,34.0,33.2,29.92,NNE,26,2.0,6.0,97,0.00,,,0.12,0,Wunderground v.1.15,2013-02-24 06:18:00,
2013-02-24 01:24:00,33.8,33.0,29.92,NNE,26,2.0,6.0,97,0.00,,,0.12,0,Wunderground v.1.15,2013-02-24 06:24:00,
2013-02-24 01:30:00,33.8,33.0,29.92,NNE,26,3.0,3.0,97,0.00,,,0.13,0,Wunderground v.1.15,2013-02-24 06:30:00,
2013-02-24 01:36:00,33.8,33.0,29.91,NNE,26,2.0,6.0,97,0.00,,,0.13,0,Wunderground v.1.15,2013-02-24 06:36:00,
2013-02-24 01:42:00,33.8,33.0,29.91,NNE,26,1.0,3.0,97,0.00,,,0.13,0,Wunderground v.1.15,2013-02-24 06:42:00,
2013-02-24 01:48:00,33.8,33.0,29.91,NNE,26,1.0,6.0,97,0.00,,,0.13,0,Wunderground v.1.15,2013-02-24 06:48:00,
2013-02-24 01:54:00,34.0,33.2,29.91,NNE,26,0.0,6.0,97,0.00,,,0.13,0,Wunderground v.1.15,2013-02-24 06:54:00,
2013-02-24 02:00:00,34.0,33.2,29.91,NNE,26,0.0,6.0,97,0.00,,,0.13,0,Wunderground v.1.15,2013-02-24 07:00:00,
2013-02-24 02:06:00,34.0,33.2,29.90,NNE,26,0.0,6.0,97,0.00,,,0.13,0,Wunderground v.1.15,2013-02-24 07:06:00,
2013-02-24 02:12:00,34.1,33.3,29.90,NNE,26,0.0,1.0,97,0.00,,,0.13,0,Wunderground v.1.15,2013-02-24 07:12:00,
2013-02-24 02:18:00,34.1,33.3,29.89,NNE,26,1.0,5.0,97,0.00,,,0.13,0,Wunderground v.1.15,2013-02-24 07:18:00,
2013-02-24 02:24:00,34.3,33.5,29.89,NNE,26,2.0,2.0,97,0.00,,,0.14,0,Wunderground v.1.15,2013-02-24 07:24:00,
2013-02-24 02:30:00,34.3,33.5,29.89,NNE,26,1.0,1.0,97,0.00,,,0.14,0,Wunderground v.1.15,2013-02-24 07:30:00,
2013-02-24 02:36:00,34.3,33.5,29.88,NNE,26,2.0,4.0,97,0.00,,,0.14,0,Wunderground v.1.15,2013-02-24 07:36:00,
2013-02-24 02:42:00,34.3,33.5,29.88,NNE,26,3.0,5.0,97,0.00,,,0.14,0,Wunderground v.1.15,2013-02-24 07:42:00,
2013-02-24 02:48:00,34.4,33.6,29.87,NNE,26,3.0,5.0,97,0.00,,,0.15,0,Wunderground v.1.15,2013-02-24 07:48:00,
2013-02-24 02:54:00,34.4,33.6,29.87,NNE,26,2.0,5.0,97,0.00,,,0.15,0,Wunderground v.1.15,2013-02-24 07:54:00,
2013-02-24 03:00:00,34.6,33.8,29.87,NNE,26,3.0,6.0,97,0.04,,,0.16,0,Wunderground v.1.15,2013-02-24 08:00:00,
2013-02-24 03:06:00,34.7,33.9,29.86,NNE,26,4.0,6.0,97,0.04,,,0.16,0,Wunderground v.1.15,2013-02-24 08:06:00,
2013-02-24 03:12:00,35.0,34.2,29.86,NNE,22,4.0,7.0,97,0.05,,,0.17,0,Wunderground v.1.15,2013-02-24 08:12:00,
2013-02-24 03:18:00,35.2,34.4,29.85,NNE,30,5.0,7.0,97,0.05,,,0.17,0,Wunderground v.1.15,2013-02-24 08:18:00,
2013-02-24 03:24:00,35.3,34.5,29.85,NNE,26,4.0,7.0,97,0.04,,,0.17,0,Wunderground v.1.15,2013-02-24 08:24:00,
2013-02-24 03:30:00,35.5,34.7,29.85,NNE,22,5.0,6.0,97,0.00,,,0.17,0,Wunderground v.1.15,2013-02-24 08:30:00,
2013-02-24 03:36:00,35.6,34.8,29.84,NE,40,4.0,6.0,97,0.00,,,0.17,0,Wunderground v.1.15,2013-02-24 08:36:00,
2013-02-24 03:42:00,35.6,34.8,29.84,NE,39,3.0,5.0,97,0.00,,,0.18,0,Wunderground v.1.15,2013-02-24 08:42:00,
2013-02-24 03:48:00,35.6,34.8,29.84,NNE,30,2.0,5.0,97,0.00,,,0.18,0,Wunderground v.1.15,2013-02-24 08:48:00,
2013-02-24 03:54:00,35.6,35.1,29.84,NNE,32,2.0,5.0,98,0.00,,,0.18,0,Wunderground v.1.15,2013-02-24 08:54:00,
2013-02-24 04:00:00,35.6,35.1,29.84,NNE,31,1.0,5.0,98,0.00,,,0.19,0,Wunderground v.1.15,2013-02-24 09:00:00,
2013-02-24 04:06:00,35.8,35.3,29.84,NNE,33,2.0,7.0,98,0.00,,,0.00,0,Wunderground v.1.15,2013-02-24 09:06:00,
2013-02-24 04:12:00,35.9,35.4,29.84,NNE,33,2.0,5.0,98,0.06,,,0.01,0,Wunderground v.1.15,2013-02-24 09:12:00,
2013-02-24 04:18:00,35.9,35.4,29.83,NNE,33,2.0,7.0,98,0.06,,,0.01,0,Wunderground v.1.15,2013-02-24 09:18:00,
2013-02-24 04:24:00,36.0,35.5,29.83,NNE,22,3.0,7.0,98,0.04,,,0.02,0,Wunderground v.1.15,2013-02-24 09:24:00,
2013-02-24 04:30:00,36.2,35.7,29.83,NNE,30,3.0,7.0,98,0.04,,,0.02,0,Wunderground v.1.15,2013-02-24 09:30:00,
2013-02-24 04:36:00,36.2,35.7,29.83,NNE,31,4.0,7.0,98,0.04,,,0.03,0,Wunderground v.1.15,2013-02-24 09:36:00,
2013-02-24 04:42:00,36.2,35.7,29.83,NE,37,3.0,7.0,98,0.04,,,0.03,0,Wunderground v.1.15,2013-02-24 09:42:00,
2013-02-24 04:48:00,36.3,35.8,29.82,NE,38,3.0,7.0,98,0.04,,,0.03,0,Wunderground v.1.15,2013-02-24 09:48:00,
2013-02-24 04:54:00,36.3,35.8,29.82,NE,37,2.0,7.0,98,0.04,,,0.04,0,Wunderground v.1.15,2013-02-24 09:54:00,
2013-02-24 05:00:00,36.5,36.0,29.82,NE,37,2.0,7.0,98,0.04,,,0.04,0,Wunderground v.1.15,2013-02-24 10:00:00,
2013-02-24 05:06:00,36.5,36.0,29.81,NNE,24,3.0,7.0,98,0.05,,,0.05,0,Wunderground v.1.15,2013-02-24 10:06:00,
2013-02-24 05:12:00,36.6,36.1,29.81,NNE,20,4.0,5.0,98,0.05,,,0.05,0,Wunderground v.1.15,2013-02-24 10:12:00,
2013-02-24 05:18:00,36.8,36.3,29.81,NE,41,3.0,7.0,98,0.04,,,0.05,0,Wunderground v.1.15,2013-02-24 10:18:00,
2013-02-24 05:24:00,36.9,36.4,29.81,NE,37,4.0,5.0,98,0.00,,,0.05,0,Wunderground v.1.15,2013-02-24 10:24:00,
2013-02-24 05:30:00,37.0,36.5,29.81,NNE,22,3.0,6.0,98,0.00,,,0.06,0,Wunderground v.1.15,2013-02-24 10:30:00,
2013-02-24 05:36:00,37.0,36.5,29.81,NNE,33,3.0,6.0,98,0.00,,,0.06,0,Wunderground v.1.15,2013-02-24 10:36:00,
2013-02-24 05:42:00,37.0,36.5,29.81,NNE,21,2.0,6.0,98,0.00,,,0.06,0,Wunderground v.1.15,2013-02-24 10:42:00,
2013-02-24 05:48:00,37.0,36.5,29.82,North,11,2.0,6.0,98,0.00,,,0.06,0,Wunderground v.1.15,2013-02-24 10:48:00,
2013-02-24 05:54:00,37.0,36.5,29.82,NNE,31,2.0,5.0,98,0.00,,,0.07,0,Wunderground v.1.15,2013-02-24 10:54:00,
2013-02-24 06:00:00,37.0,36.5,29.82,NNE,28,3.0,5.0,98,0.00,,,0.07,0,Wunderground v.1.15,2013-02-24 11:00:00,
2013-02-24 06:06:00,37.2,36.7,29.82,NE,37,3.0,8.0,98,0.04,,,0.08,0,Wunderground v.1.15,2013-02-24 11:06:00,
2013-02-24 06:12:00,37.2,36.7,29.82,NNE,20,3.0,8.0,98,0.04,,,0.08,0,Wunderground v.1.15,2013-02-24 11:12:00,
2013-02-24 06:18:00,37.2,36.7,29.81,NNE,32,3.0,8.0,98,0.06,,,0.09,0,Wunderground v.1.15,2013-02-24 11:18:00,
2013-02-24 06:24:00,37.3,36.8,29.81,NNE,22,3.0,8.0,98,0.06,,,0.09,0,Wunderground v.1.15,2013-02-24 11:24:00,
2013-02-24 06:30:00,37.3,36.8,29.81,NNE,22,3.0,3.0,98,0.06,,,0.10,0,Wunderground v.1.15,2013-02-24 11:30:00,
2013-02-24 06:36:00,37.3,36.8,29.81,NNE,23,2.0,8.0,98,0.05,,,0.10,0,Wunderground v.1.15,2013-02-24 11:36:00,
2013-02-24 06:42:00,37.3,36.8,29.81,NNE,24,3.0,3.0,98,0.05,,,0.11,0,Wunderground v.1.15,2013-02-24 11:42:00,
2013-02-24 06:48:00,37.5,37.0,29.81,NNE,24,3.0,8.0,98,0.05,,,0.11,0,Wunderground v.1.15,2013-02-24 11:48:00,
2013-02-24 06:54:00,37.5,37.0,29.81,NNE,24,3.0,8.0,98,0.04,,,0.11,9,Wunderground v.1.15,2013-02-24 11:54:00,
2013-02-24 07:00:00,37.5,37.0,29.81,NNE,24,2.0,2.0,98,0.00,,,0.11,14,Wunderground v.1.15,2013-02-24 12:00:00,
2013-02-24 07:06:00,37.5,37.0,29.82,NNE,24,2.0,8.0,98,0.00,,,0.12,16,Wunderground v.1.15,2013-02-24 12:06:00,
2013-02-24 07:12:00,37.5,37.0,29.82,NNE,24,3.0,7.0,98,0.00,,,0.12,14,Wunderground v.1.15,2013-02-24 12:12:00,
2013-02-24 07:18:00,37.5,37.0,29.82,NNE,33,3.0,7.0,98,0.04,,,0.13,9,Wunderground v.1.15,2013-02-24 12:18:00,
2013-02-24 07:24:00,37.3,36.8,29.82,NE,36,2.0,7.0,98,0.04,,,0.13,7,Wunderground v.1.15,2013-02-24 12:24:00,
2013-02-24 07:30:00,37.3,36.8,29.82,NNE,28,2.0,7.0,98,0.07,,,0.14,9,Wunderground v.1.15,2013-02-24 12:30:00,
2013-02-24 07:36:00,37.3,36.8,29.82,North,11,3.0,7.0,98,0.07,,,0.15,12,Wunderground v.1.15,2013-02-24 12:36:00,
2013-02-24 07:42:00,37.2,36.7,29.82,North,10,2.0,7.0,98,0.07,,,0.15,21,Wunderground v.1.15,2013-02-24 12:42:00,
2013-02-24 07:48:00,37.2,36.7,29.81,NE,36,2.0,7.0,98,0.06,,,0.16,26,Wunderground v.1.15,2013-02-24 12:48:00,
2013-02-24 07:54:00,37.0,36.5,29.81,WNW,298,2.0,7.0,98,0.07,,,0.17,28,Wunderground v.1.15,2013-02-24 12:54:00,
2013-02-24 08:00:00,36.9,36.4,29.81,NNE,22,2.0,7.0,98,0.07,,,0.17,30,Wunderground v.1.15,2013-02-24 13:00:00,
2013-02-24 08:06:00,36.6,36.1,29.81,NW,325,2.0,7.0,98,0.05,,,0.17,33,Wunderground v.1.15,2013-02-24 13:06:00,
2013-02-24 08:12:00,36.5,36.0,29.81,NNE,22,2.0,7.0,98,0.04,,,0.18,37,Wunderground v.1.15,2013-02-24 13:12:00,
2013-02-24 08:18:00,36.2,35.7,29.80,NNE,17,3.0,7.0,98,0.06,,,0.19,44,Wunderground v.1.15,2013-02-24 13:18:00,
2013-02-24 08:24:00,36.0,35.5,29.80,NNE,19,4.0,6.0,98,0.06,,,0.19,40,Wunderground v.1.15,2013-02-24 13:24:00,
2013-02-24 08:30:00,36.0,35.5,29.80,NNE,20,3.0,3.0,98,0.05,,,0.19,37,Wunderground v.1.15,2013-02-24 13:30:00,
2013-02-24 08:36:00,35.9,35.4,29.80,NNE,32,2.0,4.0,98,0.05,,,0.20,40,Wunderground v.1.15,2013-02-24 13:36:00,
2013-02-24 08:42:00,35.9,35.4,29.80,NNE,24,3.0,4.0,98,0.05,,,0.21,33,Wunderground v.1.15,2013-02-24 13:42:00,
2013-02-24 08:48:00,35.8,35.3,29.79,NNE,26,3.0,4.0,98,0.05,,,0.21,33,Wunderground v.1.15,2013-02-24 13:48:00,
2013-02-24 08:54:00,35.6,34.8,29.79,NE,46,5.0,10.0,97,0.05,,,0.21,47,Wunderground v.1.15,2013-02-24 13:54:00,
2013-02-24 09:00:00,35.8,35.0,29.79,NNW,336,5.0,5.0,97,0.04,,,0.22,53,Wunderground v.1.15,2013-02-24 14:00:00,
2013-02-24 09:06:00,35.8,35.3,29.78,NNE,20,4.0,9.0,98,0.04,,,0.22,58,Wunderground v.1.15,2013-02-24 14:06:00,
2013-02-24 09:12:00,35.9,35.1,29.78,NNE,32,5.0,10.0,97,0.04,,,0.22,56,Wunderground v.1.15,2013-02-24 14:12:00,
2013-02-24 09:18:00,36.0,35.2,29.78,NNW,341,5.0,10.0,97,0.00,,,0.22,49,Wunderground v.1.15,2013-02-24 14:18:00,
2013-02-24 09:24:00,36.0,35.2,29.78,North,355,3.0,9.0,97,0.00,,,0.23,62,Wunderground v.1.15,2013-02-24 14:24:00,
2013-02-24 09:30:00,36.2,35.4,29.78,NNE,19,3.0,3.0,97,0.00,,,0.23,72,Wunderground v.1.15,2013-02-24 14:30:00,
2013-02-24 09:36:00,36.3,35.5,29.78,NNE,30,5.0,9.0,97,0.00,,,0.23,72,Wunderground v.1.15,2013-02-24 14:36:00,
2013-02-24 09:42:00,36.5,35.7,29.78,NNE,30,3.0,9.0,97,0.00,,,0.24,84,Wunderground v.1.15,2013-02-24 14:42:00,
2013-02-24 09:48:00,36.5,35.7,29.77,NNE,29,2.0,9.0,97,0.00,,,0.24,113,Wunderground v.1.15,2013-02-24 14:48:00,
2013-02-24 09:54:00,36.5,35.7,29.77,NNE,32,3.0,9.0,97,0.00,,,0.24,165,Wunderground v.1.15,2013-02-24 14:54:00,
2013-02-24 10:00:00,36.6,35.8,29.77,NNW,338,3.0,3.0,97,0.00,,,0.25,109,Wunderground v.1.15,2013-02-24 15:00:00,
2013-02-24 10:06:00,36.3,35.5,29.76,NW,317,3.0,9.0,97,0.00,,,0.25,134,Wunderground v.1.15,2013-02-24 15:06:00,
2013-02-24 10:12:00,36.2,35.4,29.76,NE,42,5.0,6.0,97,0.00,,,0.25,123,Wunderground v.1.15,2013-02-24 15:12:00,
2013-02-24 10:18:00,36.3,35.5,29.75,North,10,4.0,6.0,97,0.00,,,0.25,134,Wunderground v.1.15,2013-02-24 15:18:00,
2013-02-24 10:24:00,36.2,35.4,29.75,NE,38,4.0,9.0,97,0.00,,,0.25,97,Wunderground v.1.15,2013-02-24 15:24:00,
2013-02-24 10:30:00,36.2,35.4,29.75,NNW,334,4.0,6.0,97,0.00,,,0.25,104,Wunderground v.1.15,2013-02-24 15:30:00,
2013-02-24 10:36:00,36.2,35.4,29.75,NW,319,5.0,6.0,97,0.00,,,0.25,118,Wunderground v.1.15,2013-02-24 15:36:00,
2013-02-24 10:42:00,36.2,35.4,29.75,NW,315,5.0,7.0,97,0.00,,,0.26,125,Wunderground v.1.15,2013-02-24 15:42:00,
2013-02-24 10:48:00,36.2,35.4,29.75,North,5,5.0,12.0,97,0.00,,,0.26,120,Wunderground v.1.15,2013-02-24 15:48:00,
2013-02-24 10:54:00,36.0,35.0,29.75,NE,38,6.0,8.0,96,0.00,,,0.26,137,Wunderground v.1.15,2013-02-24 15:54:00,
2013-02-24 11:00:00,35.9,34.9,29.75,NE,53,5.0,12.0,96,0.00,,,0.26,142,Wunderground v.1.15,2013-02-24 16:00:00,
2013-02-24 11:06:00,35.6,34.6,29.75,North,360,7.0,14.0,96,0.00,,,0.26,156,Wunderground v.1.15,2013-02-24 16:06:00,
2013-02-24 11:12:00,35.6,34.6,29.75,NNE,33,6.0,16.0,96,0.00,,,0.26,151,Wunderground v.1.15,2013-02-24 16:12:00,
2013-02-24 11:18:00,35.5,34.5,29.75,NE,41,7.0,16.0,96,0.00,,,0.26,169,Wunderground v.1.15,2013-02-24 16:18:00,
2013-02-24 11:24:00,35.6,34.6,29.75,NE,42,7.0,14.0,96,0.00,,,0.26,165,Wunderground v.1.15,2013-02-24 16:24:00,
2013-02-24 11:30:00,35.5,34.5,29.75,NNE,19,6.0,6.0,96,0.00,,,0.26,148,Wunderground v.1.15,2013-02-24 16:30:00,
2013-02-24 11:36:00,35.6,34.3,29.74,North,355,5.0,14.0,95,0.00,,,0.26,130,Wunderground v.1.15,2013-02-24 16:36:00,
2013-02-24 11:42:00,35.5,34.2,29.74,NE,36,5.0,14.0,95,0.00,,,0.26,120,Wunderground v.1.15,2013-02-24 16:42:00,
2013-02-24 11:48:00,35.3,34.0,29.75,NNE,13,4.0,14.0,95,0.00,,,0.26,97,Wunderground v.1.15,2013-02-24 16:48:00,
2013-02-24 11:54:00,35.0,33.7,29.75,NW,315,4.0,14.0,95,0.00,,,0.26,81,Wunderground v.1.15,2013-02-24 16:54:00,
2013-02-24 12:00:00,34.9,33.6,29.75,NE,44,4.0,14.0,95,0.00,,,0.26,69,Wunderground v.1.15,2013-02-24 17:00:00,
2013-02-24 12:06:00,34.6,33.3,29.75,NNW,328,4.0,14.0,95,0.00,,,0.26,51,Wunderground v.1.15,2013-02-24 17:06:00,
2013-02-24 12:12:00,34.4,33.1,29.75,NNE,12,5.0,7.0,95,0.00,,,0.26,39,Wunderground v.1.15,2013-02-24 17:12:00,
2013-02-24 12:18:00,34.3,33.0,29.75,NE,48,4.0,7.0,95,0.00,,,0.26,28,Wunderground v.1.15,2013-02-24 17:18:00,
2013-02-24 12:24:00,34.1,32.8,29.75,NNE,25,4.0,7.0,95,0.00,,,0.26,21,Wunderground v.1.15,2013-02-24 17:24:00,
2013-02-24 12:30:00,34.0,32.7,29.75,NNW,333,5.0,5.0,95,0.00,,,0.26,21,Wunderground v.1.15,2013-02-24 17:30:00,
2013-02-24 12:36:00,33.8,32.5,29.75,NNE,28,5.0,7.0,95,0.00,,,0.26,21,Wunderground v.1.15,2013-02-24 17:36:00,
2013-02-24 12:42:00,33.8,32.5,29.75,NNW,347,4.0,7.0,95,0.00,,,0.27,23,Wunderground v.1.15,2013-02-24 17:42:00,
2013-02-24 12:48:00,33.8,32.5,29.75,NNE,30,5.0,7.0,95,0.00,,,0.27,32,Wunderground v.1.15,2013-02-24 17:48:00,
2013-02-24 12:54:00,33.8,32.8,29.75,NW,316,4.0,7.0,96,0.00,,,0.27,32,Wunderground v.1.15,2013-02-24 17:54:00,
2013-02-24 13:00:00,33.8,32.8,29.75,North,5,4.0,9.0,96,0.00,,,0.27,35,Wunderground v.1.15,2013-02-24 18:00:00,
2013-02-24 13:06:00,34.0,33.0,29.75,NNE,14,4.0,10.0,96,0.00,,,0.27,42,Wunderground v.1.15,2013-02-24 18:06:00,
2013-02-24 13:12:00,34.1,33.1,29.75,NNW,348,5.0,10.0,96,0.00,,,0.27,47,Wunderground v.1.15,2013-02-24 18:12:00,
2013-02-24 13:18:00,34.1,32.8,29.74,NNW,348,4.0,10.0,95,0.00,,,0.27,47,Wunderground v.1.15,2013-02-24 18:18:00,
2013-02-24 13:24:00,34.0,32.7,29.74,NNE,14,4.0,10.0,95,0.00,,,0.28,53,Wunderground v.1.15,2013-02-24 18:24:00,
2013-02-24 13:30:00,33.7,32.4,29.74,NNE,18,3.0,10.0,95,0.00,,,0.28,60,Wunderground v.1.15,2013-02-24 18:30:00,
2013-02-24 13:36:00,33.4,32.1,29.73,North,360,3.0,10.0,95,0.00,,,0.28,67,Wunderground v.1.15,2013-02-24 18:36:00,
2013-02-24 13:42:00,33.1,31.8,29.73,NNE,21,3.0,5.0,95,0.00,,,0.28,70,Wunderground v.1.15,2013-02-24 18:42:00,
2013-02-24 13:48:00,33.1,32.1,29.73,NW,323,3.0,10.0,96,0.00,,,0.29,76,Wunderground v.1.15,2013-02-24 18:48:00,
2013-02-24 13:54:00,32.9,31.9,29.73,NNE,15,2.0,10.0,96,0.00,,,0.29,81,Wunderground v.1.15,2013-02-24 18:54:00,
2013-02-24 14:00:00,32.9,31.9,29.73,NE,35,2.0,10.0,96,0.00,,,0.29,98,Wunderground v.1.15,2013-02-24 19:00:00,
2013-02-24 14:06:00,32.9,31.9,29.73,NE,34,3.0,10.0,96,0.00,,,0.30,113,Wunderground v.1.15,2013-02-24 19:06:00,
2013-02-24 14:12:00,33.1,32.1,29.73,North,5,3.0,5.0,96,0.00,,,0.30,121,Wunderground v.1.15,2013-02-24 19:12:00,
2013-02-24 14:18:00,33.2,32.2,29.73,North,9,3.0,5.0,96,0.06,,,0.31,148,Wunderground v.1.15,2013-02-24 19:18:00,
2013-02-24 14:24:00,33.4,32.4,29.73,NNE,24,3.0,6.0,96,0.06,,,0.31,158,Wunderground v.1.15,2013-02-24 19:24:00,
2013-02-24 14:30:00,33.4,32.4,29.73,ENE,59,4.0,4.0,96,0.06,,,0.32,162,Wunderground v.1.15,2013-02-24 19:30:00,
2013-02-24 14:36:00,33.5,32.5,29.74,NNE,29,3.0,5.0,96,0.06,,,0.32,137,Wunderground v.1.15,2013-02-24 19:36:00,
2013-02-24 14:42:00,33.7,32.7,29.74,NNW,346,3.0,4.0,96,0.05,,,0.33,107,Wunderground v.1.15,2013-02-24 19:42:00,
2013-02-24 14:48:00,33.7,32.7,29.75,NNE,19,3.0,6.0,96,0.05,,,0.33,81,Wunderground v.1.15,2013-02-24 19:48:00,
2013-02-24 14:54:00,33.5,32.5,29.75,NNE,32,3.0,6.0,96,0.04,,,0.33,76,Wunderground v.1.15,2013-02-24 19:54:00,
2013-02-24 15:00:00,33.7,32.7,29.75,NNW,343,2.0,2.0,96,0.00,,,0.33,76,Wunderground v.1.15,2013-02-24 20:00:00,
2013-02-24 15:06:00,33.5,32.5,29.75,NNE,20,3.0,13.0,96,0.00,,,0.33,90,Wunderground v.1.15,2013-02-24 20:06:00,
2013-02-24 15:12:00,33.5,32.5,29.75,NNE,24,4.0,13.0,96,0.00,,,0.33,104,Wunderground v.1.15,2013-02-24 20:12:00,
2013-02-24 15:18:00,33.7,32.7,29.76,NE,41,3.0,13.0,96,0.00,,,0.33,77,Wunderground v.1.15,2013-02-24 20:18:00,
2013-02-24 15:24:00,33.8,32.8,29.76,NNE,23,2.0,13.0,96,0.00,,,0.34,76,Wunderground v.1.15,2013-02-24 20:24:00,
2013-02-24 15:30:00,33.7,32.7,29.76,NW,321,3.0,13.0,96,0.00,,,0.34,60,Wunderground v.1.15,2013-02-24 20:30:00,
2013-02-24 15:36:00,33.5,32.5,29.76,NW,307,3.0,13.0,96,0.00,,,0.34,49,Wunderground v.1.15,2013-02-24 20:36:00,
2013-02-24 15:42:00,33.4,32.4,29.76,NE,53,3.0,13.0,96,0.00,,,0.34,44,Wunderground v.1.15,2013-02-24 20:42:00,
2013-02-24 15:48:00,33.2,32.2,29.77,NNW,338,2.0,13.0,96,0.00,,,0.34,32,Wunderground v.1.15,2013-02-24 20:48:00,
2013-02-24 15:54:00,33.1,32.1,29.77,West,260,3.0,13.0,96,0.00,,,0.34,33,Wunderground v.1.15,2013-02-24 20:54:00,
2013-02-24 16:00:00,33.1,32.1,29.77,NE,35,2.0,2.0,96,0.00,,,0.34,32,Wunderground v.1.15,2013-02-24 21:00:00,
2013-02-24 16:06:00,32.9,31.9,29.77,NNE,13,2.0,13.0,96,0.00,,,0.34,33,Wunderground v.1.15,2013-02-24 21:06:00,
2013-02-24 16:12:00,32.8,31.8,29.77,North,5,2.0,4.0,96,0.00,,,0.34,33,Wunderground v.1.15,2013-02-24 21:12:00,
2013-02-24 16:18:00,32.8,31.8,29.77,NNW,338,1.0,4.0,96,0.00,,,0.34,28,Wunderground v.1.15,2013-02-24 21:18:00,
2013-02-24 16:24:00,32.7,31.7,29.77,WNW,303,2.0,4.0,96,0.00,,,0.34,19,Wunderground v.1.15,2013-02-24 21:24:00,
2013-02-24 16:30:00,32.7,31.7,29.77,NNE,25,2.0,6.0,96,0.00,,,0.34,19,Wunderground v.1.15,2013-02-24 21:30:00,
2013-02-24 16:36:00,32.7,31.7,29.78,NNE,22,3.0,6.0,96,0.00,,,0.34,18,Wunderground v.1.15,2013-02-24 21:36:00,
2013-02-24 16:42:00,32.5,31.5,29.78,North,350,2.0,4.0,96,0.00,,,0.34,16,Wunderground v.1.15,2013-02-24 21:42:00,
2013-02-24 16:48:00,32.5,31.5,29.78,North,351,3.0,4.0,96,0.00,,,0.34,9,Wunderground v.1.15,2013-02-24 21:48:00,
2013-02-24 16:54:00,32.5,31.5,29.78,NNW,347,1.0,4.0,96,0.00,,,0.34,9,Wunderground v.1.15,2013-02-24 21:54:00,
2013-02-24 17:00:00,32.5,31.5,29.78,NNW,345,1.0,1.0,96,0.00,,,0.34,12,Wunderground v.1.15,2013-02-24 22:00:00,
2013-02-24 17:06:00,32.4,31.4,29.78,NNW,327,1.0,4.0,96,0.00,,,0.34,12,Wunderground v.1.15,2013-02-24 22:06:00,
2013-02-24 17:12:00,32.4,31.4,29.78,NNE,19,2.0,2.0,96,0.00,,,0.34,9,Wunderground v.1.15,2013-02-24 22:12:00,
2013-02-24 17:18:00,32.4,31.4,29.79,NNW,338,2.0,4.0,96,0.00,,,0.35,5,Wunderground v.1.15,2013-02-24 22:18:00,
2013-02-24 17:24:00,32.4,31.4,29.79,NNW,327,2.0,4.0,96,0.00,,,0.35,0,Wunderground v.1.15,2013-02-24 22:24:00,
2013-02-24 17:30:00,32.4,31.4,29.79,NW,325,2.0,4.0,96,0.00,,,0.35,0,Wunderground v.1.15,2013-02-24 22:30:00,
2013-02-24 17:36:00,32.4,31.4,29.80,NE,46,2.0,5.0,96,0.00,,,0.35,0,Wunderground v.1.15,2013-02-24 22:36:00,
2013-02-24 17:42:00,32.4,31.4,29.80,NNW,337,2.0,5.0,96,0.00,,,0.35,0,Wunderground v.1.15,2013-02-24 22:42:00,
2013-02-24 17:48:00,32.4,31.4,29.81,NNE,19,3.0,5.0,96,0.00,,,0.35,0,Wunderground v.1.15,2013-02-24 22:48:00,
2013-02-24 17:54:00,32.4,31.4,29.81,North,360,3.0,5.0,96,0.00,,,0.35,0,Wunderground v.1.15,2013-02-24 22:54:00,
2013-02-24 18:00:00,32.2,31.2,29.81,NNE,22,2.0,2.0,96,0.00,,,0.35,0,Wunderground v.1.15,2013-02-24 23:00:00,
2013-02-24 18:06:00,32.2,31.2,29.81,NW,324,3.0,3.0,96,0.00,,,0.35,0,Wunderground v.1.15,2013-02-24 23:06:00,
2013-02-24 18:12:00,32.2,31.2,29.81,North,9,2.0,6.0,96,0.00,,,0.35,0,Wunderground v.1.15,2013-02-24 23:12:00,
2013-02-24 18:18:00,32.2,31.2,29.82,North,5,2.0,7.0,96,0.00,,,0.35,0,Wunderground v.1.15,2013-02-24 23:18:00,
2013-02-24 18:24:00,32.1,31.1,29.82,NW,318,2.0,7.0,96,0.00,,,0.35,0,Wunderground v.1.15,2013-02-24 23:24:00,
2013-02-24 18:30:00,32.1,31.1,29.82,NNW,344,2.0,7.0,96,0.00,,,0.35,0,Wunderground v.1.15,2013-02-24 23:30:00,
2013-02-24 18:36:00,32.1,31.1,29.83,NW,306,3.0,7.0,96,0.00,,,0.35,0,Wunderground v.1.15,2013-02-24 23:36:00,
2013-02-24 18:42:00,32.1,31.1,29.83,NW,318,2.0,7.0,96,0.00,,,0.35,0,Wunderground v.1.15,2013-02-24 23:42:00,
2013-02-24 18:48:00,32.1,31.1,29.84,NNW,342,2.0,7.0,96,0.00,,,0.35,0,Wunderground v.1.15,2013-02-24 23:48:00,
2013-02-24 18:54:00,32.1,31.1,29.84,NW,319,3.0,7.0,96,0.00,,,0.35,0,Wunderground v.1.15,2013-02-24 23:54:00,
2013-02-24 19:00:00,31.9,30.9,29.84,North,351,2.0,2.0,96,0.00,,,0.35,0,Wunderground v.1.15,2013-02-25 00:00:00,
2013-02-24 19:06:00,31.9,30.9,29.85,NW,318,2.0,7.0,96,0.00,,,0.35,0,Wunderground v.1.15,2013-02-25 00:06:00,
2013-02-24 19:12:00,31.8,30.8,29.85,NNE,31,3.0,7.0,96,0.00,,,0.35,0,Wunderground v.1.15,2013-02-25 00:12:00,
2013-02-24 19:18:00,31.8,30.8,29.85,NNE,14,3.0,7.0,96,0.00,,,0.35,0,Wunderground v.1.15,2013-02-25 00:18:00,
2013-02-24 19:24:00,31.8,30.8,29.85,North,360,1.0,7.0,96,0.00,,,0.35,0,Wunderground v.1.15,2013-02-25 00:24:00,
2013-02-24 19:30:00,31.8,30.8,29.85,North,9,2.0,2.0,96,0.00,,,0.35,0,Wunderground v.1.15,2013-02-25 00:30:00,
2013-02-24 19:36:00,31.6,30.6,29.86,NNE,20,2.0,7.0,96,0.00,,,0.35,0,Wunderground v.1.15,2013-02-25 00:36:00,
2013-02-24 19:42:00,31.6,30.6,29.86,NE,40,2.0,7.0,96,0.00,,,0.35,0,Wunderground v.1.15,2013-02-25 00:42:00,
2013-02-24 19:48:00,31.6,29.8,29.87,North,5,1.0,7.0,93,0.00,,,0.35,0,Wunderground v.1.15,2013-02-25 00:48:00,
2013-02-24 19:54:00,31.6,30.6,29.87,NE,35,1.0,7.0,96,0.00,,,0.35,0,Wunderground v.1.15,2013-02-25 00:54:00,
2013-02-24 20:00:00,31.6,30.6,29.87,WNW,298,1.0,7.0,96,0.00,,,0.35,0,Wunderground v.1.15,2013-02-25 01:00:00,
2013-02-24 20:06:00,31.6,30.6,29.87,NE,38,1.0,7.0,96,0.00,,,0.35,0,Wunderground v.1.15,2013-02-25 01:06:00,
2013-02-24 20:12:00,31.6,30.6,29.87,WNW,288,1.0,1.0,96,0.00,,,0.35,0,Wunderground v.1.15,2013-02-25 01:12:00,
2013-02-24 20:18:00,31.6,30.6,29.87,NW,321,1.0,1.0,96,0.00,,,0.35,0,Wunderground v.1.15,2013-02-25 01:18:00,
2013-02-24 20:24:00,31.6,30.6,29.87,NNW,328,1.0,1.0,96,0.00,,,0.35,0,Wunderground v.1.15,2013-02-25 01:24:00,
2013-02-24 20:30:00,31.6,30.6,29.87,North,355,1.0,1.0,96,0.00,,,0.35,0,Wunderground v.1.15,2013-02-25 01:30:00,
2013-02-24 20:36:00,31.6,30.6,29.88,North,351,1.0,2.0,96,0.00,,,0.35,0,Wunderground v.1.15,2013-02-25 01:36:00,
2013-02-24 20:42:00,31.6,30.6,29.88,NNW,347,1.0,1.0,96,0.00,,,0.35,0,Wunderground v.1.15,2013-02-25 01:42:00,
2013-02-24 20:48:00,31.5,30.5,29.89,NNW,340,1.0,2.0,96,0.00,,,0.35,0,Wunderground v.1.15,2013-02-25 01:48:00,
2013-02-24 20:54:00,31.5,30.5,29.89,NW,316,1.0,4.0,96,0.00,,,0.35,0,Wunderground v.1.15,2013-02-25 01:54:00,
2013-02-24 21:00:00,31.5,30.5,29.89,North,355,1.0,1.0,96,0.00,,,0.35,0,Wunderground v.1.15,2013-02-25 02:00:00,
2013-02-24 21:06:00,31.5,30.5,29.90,North,10,1.0,5.0,96,0.00,,,0.35,0,Wunderground v.1.15,2013-02-25 02:06:00,
2013-02-24 21:12:00,31.5,30.5,29.90,NNW,327,1.0,5.0,96,0.00,,,0.35,0,Wunderground v.1.15,2013-02-25 02:12:00,
2013-02-24 21:18:00,31.3,30.3,29.90,NNW,339,1.0,5.0,96,0.00,,,0.35,0,Wunderground v.1.15,2013-02-25 02:18:00,
2013-02-24 21:24:00,31.3,30.3,29.90,NNW,346,0.0,5.0,96,0.00,,,0.35,0,Wunderground v.1.15,2013-02-25 02:24:00,
2013-02-24 21:30:00,31.3,30.3,29.90,NW,325,0.0,5.0,96,0.00,,,0.35,0,Wunderground v.1.15,2013-02-25 02:30:00,
2013-02-24 21:36:00,31.3,30.3,29.90,NW,325,0.0,5.0,96,0.00,,,0.35,0,Wunderground v.1.15,2013-02-25 02:36:00,
2013-02-24 21:42:00,31.3,30.3,29.90,NW,325,0.0,5.0,96,0.00,,,0.35,0,Wunderground v.1.15,2013-02-25 02:42:00,
2013-02-24 21:48:00,31.3,30.3,29.91,NW,326,0.0,5.0,96,0.00,,,0.35,0,Wunderground v.1.15,2013-02-25 02:48:00,
2013-02-24 21:54:00,31.3,30.3,29.91,NW,325,0.0,5.0,96,0.00,,,0.35,0,Wunderground v.1.15,2013-02-25 02:54:00,
2013-02-24 22:00:00,31.3,30.3,29.91,NNW,333,0.0,5.0,96,0.00,,,0.35,0,Wunderground v.1.15,2013-02-25 03:00:00,
2013-02-24 22:06:00,31.3,30.3,29.91,North,355,0.0,5.0,96,0.00,,,0.35,0,Wunderground v.1.15,2013-02-25 03:06:00,
2013-02-24 22:12:00,31.2,30.2,29.91,NNW,347,0.0,1.0,96,0.00,,,0.35,0,Wunderground v.1.15,2013-02-25 03:12:00,
2013-02-24 22:18:00,31.2,30.2,29.91,NNW,329,0.0,1.0,96,0.00,,,0.35,0,Wunderground v.1.15,2013-02-25 03:18:00,
2013-02-24 22:24:00,31.2,30.2,29.91,NNW,337,0.0,1.0,96,0.00,,,0.35,0,Wunderground v.1.15,2013-02-25 03:24:00,
2013-02-24 22:30:00,31.0,30.0,29.91,NW,317,0.0,1.0,96,0.00,,,0.35,0,Wunderground v.1.15,2013-02-25 03:30:00,
2013-02-24 22:36:00,31.0,30.0,29.92,North,11,0.0,1.0,96,0.00,,,0.35,0,Wunderground v.1.15,2013-02-25 03:36:00,
2013-02-24 22:42:00,31.0,30.0,29.92,NW,322,0.0,2.0,96,0.00,,,0.35,0,Wunderground v.1.15,2013-02-25 03:42:00,
2013-02-24 22:48:00,31.0,30.0,29.92,NNW,330,0.0,2.0,96,0.00,,,0.35,0,Wunderground v.1.15,2013-02-25 03:48:00,
2013-02-24 22:54:00,30.9,29.9,29.92,NNW,331,0.0,1.0,96,0.00,,,0.35,0,Wunderground v.1.15,2013-02-25 03:54:00,
2013-02-24 23:00:00,30.9,29.9,29.92,North,349,1.0,1.0,96,0.00,,,0.35,0,Wunderground v.1.15,2013-02-25 04:00:00,
2013-02-24 23:06:00,30.9,29.9,29.92,NW,319,1.0,1.0,96,0.00,,,0.35,0,Wunderground v.1.15,2013-02-25 04:06:00,
2013-02-24 23:12:00,30.7,29.7,29.92,NNW,334,0.0,1.0,96,0.00,,,0.35,0,Wunderground v.1.15,2013-02-25 04:12:00,
2013-02-24 23:18:00,30.7,29.7,29.92,NNW,346,0.0,1.0,96,0.00,,,0.35,0,Wunderground v.1.15,2013-02-25 04:18:00,
2013-02-24 23:24:00,30.9,29.9,29.92,NNW,347,0.0,1.0,96,0.00,,,0.35,0,Wunderground v.1.15,2013-02-25 04:24:00,
2013-02-24 23:30:00,30.9,29.9,29.92,NNW,347,0.0,1.0,96,0.00,,,0.35,0,Wunderground v.1.15,2013-02-25 04:30:00,
2013-02-24 23:36:00,30.9,29.9,29.92,North,355,0.0,1.0,96,0.00,,,0.35,0,Wunderground v.1.15,2013-02-25 04:36:00,
2013-02-24 23:42:00,30.7,29.7,29.92,NW,322,0.0,1.0,96,0.00,,,0.35,0,Wunderground v.1.15,2013-02-25 04:42:00,
2013-02-24 23:48:00,30.7,29.7,29.93,NW,321,0.0,1.0,96,0.00,,,0.35,0,Wunderground v.1.15,2013-02-25 04:48:00,
2013-02-24 23:54:00,30.7,29.7,29.93,NNE,17,0.0,1.0,96,0.00,,,0.35,0,Wunderground v.1.15,2013-02-25 04:54:00,